User: anonymous   Login
Location: Ladrillo (historical)
(32.8195°N, 117.2231°W)
Time: 21:34:00
(UTC+00:00)
Language:

Gblst 52 Del rocket - Orbit

View from above orbital plane
View from above orbital plane
View from above satellite
View from above satellite

Ground track
Ground track

The orbit data is extracted from the following two-line orbital elements,

1 25774U 99031E   21016.57965574 -.00000140  00000-0 -12227-4 0  9990
2 25774  51.5293 153.1780 0374906 226.5553 216.8883 13.46461964 62811
Epoch (UTC): 16 January 2021 13:54:42
Eccentricity: 0.0374906
inclination: 51.5293°
perigee height: 805 km
apogee height: 1365 km
right ascension of ascending node: 153.1780°
argument of perigee: 226.5553°
revolutions per day: 13.46461964
mean anomaly at epoch: 216.8883°
orbit number at epoch: 6281

The dashed part of the orbit path shows where the satellite is in the earth's shadow,  

DLR